COSMOS 2471 [GLONASS-K] 1 37372U 11009A 21112.37625948 -.00000062 00000-0 00000-0 0 9993 2 37372 65.9284 17.4397 0013262 229.7704 235.6951 2.13081436 78996 FREGAT R/B 1 37373U 11009B 21112.32063757 -.00000064 00000-0 00000-0 0 9995 2 37373 66.0070 23.3485 0072290 101.1323 66.8245 2.08582323 77312